Location: Newark
(5.8900°S, 42.6378°W)
Time: 10:47:31
(UTC+00:00)

Vanguard 1 Rocket - Pass Details

Date: 27 October 2019
Orbit: 651 x 4226 km, 34.3° (Epoch: 20 November)

Event Time Altitude Azimuth Distance (km) Brightness Sun altitude
Rises 14:24:07 0° 333° (NNW) 6,330 11.6 82.6°
Reaches altitude 10° 14:33:33 10° 2° (N) 6,248 11.7 83.1°
Maximum altitude 14:40:30 12° 22° (NNE) 6,576 11.9 82.9°
Drops below altitude 10° 14:48:21 10° 41° (NE) 7,180 12.0 82.3°
Sets 15:01:57 0° 67° (ENE) 8,464 12.2 80.3°
